Dauntless Aviation
Airports North America United States Florida
0J8

FLYING TEN AIRPORT

ARCHER, FL, USA

Airport Info
Suggest Updated Information for this Airport

Location

Latitude / Longitude: 29°37'4"N / 82°30'31"W
  29°37.0813'N / 82°30.5232'W
  29.6180 / -82.5087
Elevation: 85 ft. (estimated)
Variation: 02W (1985)
From city: 05 miles N of ARCHER, FL

Operations

Facility use: Open to the public
Sectional chart: JACKSONVILLE
Control tower: no
Boundary ARTCC: JACKSONVILLE
FSS: GAINESVILLE [1-800-WX-BRIEF]
NOTAMs facility: GNV (NOTAM-D service available)
Segmented circle: no
Lights: PHONE REQ
Landing fee: no

Communications

CTAF: 122.900

Nearby radio navigation aids

VOR radial/distance VOR name Freq Var
GNV 250oT/13.1 GATORS VORTAC 116.20 04W
CTY 88oT/28.2 CROSS CITY VORTAC 112.00 02W
OCF 331oT/30.3 OCALA VORTAC 113.70 00E
 
NDB name Hdg/Dist Freq Var ID
WYNDS 260oT/17.8 269 04W GN
LAKE CITY 174oT/34.3 204 03W LCQ
PALATKA 267oT/36.4 243 05W IAK

Services

Fuel available: 100LL
Bottled oxygen: NONE
Bulk oxygen: NONE

Runway Information

Runway 18/36

Dimensions: 3200 x 170 ft.
Surface: GRASS; SOD,FAIR CONDITION,NO SPECIAL SURFACE TREATMENT
Edge lights: NON-STANDARD LIGHTING SYSTEM
 
Runway 18
Runway 36
Traffic pattern: left left
 

Operational Statistics

Annual operations: 30000
Local: 20000
Itinerant: 10000

Additional Remarks

Instrument Procedures

No published instrument procedures available
Topographic chart at:
Satellite photo at:
Airport distance calculator
From:
Weather Reports

METAR

KGNV
12.7nm NE
KGNV 220353Z AUTO 13009KT 10SM SCT047 SCT055 BKN070 20/16 A2992 RMK AO2 SLP130 T02000156
KX60
16.2nm SE
KX60 220415Z AUTO 10006KT 10SM CLR 21/16 A2991 RMK A01
K42J
27.7nm NE
K42J 220355Z AUTO 12006KT 10SM FEW048 SCT065 19/16 A2993 RMK AO1 TSNO
KCTY
30.9nm W
KCTY 220355Z AUTO 00000KT 10SM CLR 17/15 A2990 RMK AO2
KOCF
31.1nm SE
KOCF 220355Z AUTO 13004KT 10SM CLR 20/14 A2992 RMK AO1
KLCQ
34.2nm NW
KLCQ 220355Z AUTO 12006KT 10SM SCT055 18/16 A2992 RMK AO2

TAF

KGNV
12.7nm NE
KGNV 212327Z 2200/2224 13006KT P6SM SCT050 BKN100 FM220400 13006KT P6SM OVC050 FM220800 11004KT 4SM BR VCSH BKN025 OVC040 FM221000 11004KT 2SM -SHRA BR SCT015 OVC025 FM221300 11007KT 3SM -SHRA BR OVC020
Safelog

 

Dauntless Aviation

© 2007-2017 Dauntless Aviation, all rights reserved
Information provided via PilotNav comes from a variety of official and unofficial data sources. As errors are possible, do not use PilotNav for primary flight planning purposes. Verify any information that you receive via PilotNav with current and canonical charts and other official documents. The material in this database is subject to database copyrights held by Dauntless Aviation and may not be copied without the express permission of Dauntless Aviation - licenses for use of part of all of this data are available for purchase; enquire via the Dauntless Aviation helpdesk. A number of mechanisms and markers exist in the database to protect against and identify infringement / copyright. Automated queries against this website are stictly prohibited, and all activity is logged and analyzed.